User: anonymous   Login
Location: Unspecified
(0.0000°N, 0.0000°E)
Time: 05:40:38
(UTC+00:00)
Language:

Explorer 7 - Orbit

View from above orbital plane
View from above orbital plane
View from above satellite
View from above satellite

Ground track
Ground track

The orbit data is extracted from the following two-line orbital elements,

1    22U 59009A   17179.50341923 +.00000165 +00000-0 +36311-4 0  9999
2    22 050.2829 149.2391 0141958 076.2845 285.3860 14.94136355308094
Epoch (UTC): 28 June 2017 12:04:55
Eccentricity: 0.0141958
inclination: 50.2829°
perigee height: 486 km
apogee height: 684 km
right ascension of ascending node: 149.2391°
argument of perigee: 76.2845°
revolutions per day: 14.94136355
mean anomaly at epoch: 285.3860°
orbit number at epoch: 30809

The dashed part of the orbit path shows where the satellite is in the earth's shadow,  

DLR